Location: Holyhead Bay
(53.3667°N, 4.6667°W)
Time: 19:34:33
(UTC+00:00)

NOAA 11 - Pass Details

Date: 24 November 2020
Orbit: 834 x 849 km, 98.4° (Epoch: 17 January)

Event Time Altitude Azimuth Distance (km) Brightness Sun altitude
Rises 17:44:47 0° 160° (SSE) 3,371 7.3 -13.5°
Reaches altitude 10° 17:47:07 10° 160° (SSE) 2,442 6.6 -13.8°
Maximum altitude 17:52:33 85° 73° (ENE) 847 4.1 -14.6°
Drops below altitude 10° 17:58:02 10° 346° (NNW) 2,465 6.6 -15.4°
Sets 18:00:24 0° 346° (NNW) 3,406 7.4 -15.8°
